User: anonymous   Login
Location: Unspecified
(0.0000°N, 0.0000°E)
Time: 03:50:05
(UTC+00:00)
Language:

CFESAT - Orbit

View from above orbital plane
View from above orbital plane
View from above satellite
View from above satellite

Ground track
Ground track

The orbit data is extracted from the following two-line orbital elements,

1 30777U 07006F   18292.19186546 +.00002761 +00000-0 +83645-4 0  9995
2 30777 035.4256 225.6205 0004428 087.9655 272.1578 15.33914918643077
Epoch (UTC): 19 October 2018 04:36:17
Eccentricity: 0.0004428
inclination: 35.4256°
perigee height: 461 km
apogee height: 467 km
right ascension of ascending node: 225.6205°
argument of perigee: 87.9655°
revolutions per day: 15.33914918
mean anomaly at epoch: 272.1578°
orbit number at epoch: 64307

The dashed part of the orbit path shows where the satellite is in the earth's shadow,  

DLR